{"data":{"norad_id":64121,"epoch":"2026-05-25T00:16:36.172992Z","epoch_age_seconds":67867,"freshness":"FRESH","line1":"1 64121U 25110AB  26145.01152978  .00028985  00000+0  98636-3 0  9990","line2":"2 64121  53.1620  32.5377 0001206  94.1591 265.9547 15.30218901 57569","mean_motion":15.30218901,"eccentricity":0.0001206,"inclination_deg":53.162,"raan_deg":32.5377,"arg_perigee_deg":94.1591,"mean_anomaly_deg":265.9547,"bstar":0.00098636,"rev_number":5756,"period_min":94.104183333441,"perigee_km":474.33212756757,"apogee_km":475.98514247473,"semimajor_km":6853.2956350211,"source":"CELESTRAK","updated_at":"2026-05-25T13:38:20.269943Z"}}